Weather History for Reno, NV

Change the Weather History Date:

Thursday, December 6, 2012

  Actual Average Record
Temperature  
Mean Temperature 45 °F 36 °F  
Max Temperature 53 °F 47 °F 67 °F (1939)
Min Temperature 37 °F 26 °F 7 °F (1919)
Degree Days  
Heating Degree Days 20 29  
Month to date heating degree days 105 168  
Since 1 July heating degree days 904 1271  
Cooling Degree Days 0 0  
Month to date cooling degree days 0 0  
Year to date cooling degree days 1272 839  
Moisture  
Dew Point 38 °F    
Average Humidity 82    
Maximum Humidity 100    
Minimum Humidity 63    
Precipitation  
Precipitation 0.00 in 0.03 in 0.67 in (1966)
Month to date precipitation 0.97 0.18  
Year to date precipitation 4.63 6.55  
Snow  
Snow 0.00 in 0.10 in 5.00 in (1966)
Month to date snowfall 0.0 0.7  
Since 1 July snowfall 0.8 4.2  
Snow Depth 0.00 in    
Sea Level Pressure  
Sea Level Pressure 30.10 in    
Wind  
Wind Speed 2 mph (South)    
Max Wind Speed 9 mph    
Max Gust Speed 13 mph    
Visibility 4 miles    
Events Fog    
T = Trace of Precipitation, MM = Missing Value Source: NWS Daily Summary

Daily Weather History Graph

Daily Weather History Graph

Search for Another Location

Airport:

Trip Planner

Search our weather history database for the weather conditions in past years. The results will help you decide how hot, cold, wet, or windy it might be!

Date:

Astronomy

Dec. 06, 2012 Rise Set
Actual Time 7:05 AM PST 4:35 PM PST
Civil Twilight 6:35 AM PST 5:05 PM PST
Nautical Twilight 6:02 AM PST 5:38 PM PST
Astronomical Twilight 5:29 AM PST 6:11 PM PST
Moon No Moon Rise 12:02 PM PST (12/6)
Length of Visible Light 10h 29m
Length of Day
9h 29m
Waning Gibbous, 48% of the Moon is Illuminated
Dec 6
Waning Gibbous
Dec 13
New
Dec 19
First Quarter
Dec 28
Full
Jan 4
Last Quarter

Hourly Weather History & Observations

Time (PST) Temp. Windchill Dew Point Humidity Pressure Visibility Wind Dir Wind Speed Gust Speed Precip Events Conditions
12:55 AM 41.0 °F - 39.9 °F 96% 30.09 in 0.2 mi Calm Calm - N/A   Scattered Clouds
1:03 AM 41.0 °F - 39.2 °F 93% 30.12 in 0.1 mi Calm Calm - N/A Fog Fog
1:11 AM 41.0 °F - 39.2 °F 93% 30.12 in 0.1 mi Calm Calm - N/A Fog Fog
1:55 AM 42.1 °F - 41.0 °F 96% 30.08 in 0.1 mi Calm Calm - N/A Fog Fog
2:55 AM 39.0 °F - 37.9 °F 96% 30.08 in 0.2 mi Calm Calm - N/A Fog Fog
3:55 AM 39.9 °F - 39.0 °F 97% 30.08 in 0.1 mi Calm Calm - N/A Fog Fog
4:55 AM 39.9 °F - 39.0 °F 97% 30.07 in 0.1 mi Calm Calm - N/A Fog Fog
5:55 AM 41.0 °F 39.0 °F 39.9 °F 96% 30.08 in 0.2 mi SSE 3.5 mph - N/A Fog Fog
6:55 AM 39.9 °F - 39.0 °F 97% 30.09 in 0.5 mi Calm Calm - N/A Fog Fog
7:07 AM 39.2 °F - 39.2 °F 100% 30.12 in 1.0 mi Calm Calm - N/A   Overcast
7:53 AM 39.2 °F - 39.2 °F 100% 30.12 in 0.5 mi Calm Calm - N/A Fog Fog
7:55 AM 39.9 °F 37.8 °F 39.0 °F 97% 30.09 in 0.5 mi South 3.5 mph - N/A Fog Fog
8:02 AM 39.2 °F - 39.2 °F 100% 30.12 in 0.2 mi Calm Calm - N/A Fog Fog
8:55 AM 39.0 °F - 39.0 °F 100% 30.10 in 0.2 mi Calm Calm - N/A Fog Fog
9:08 AM 39.2 °F - 37.4 °F 93% 30.12 in 0.5 mi Calm Calm - N/A Fog Fog
9:25 AM 39.2 °F 37.0 °F 39.2 °F 100% 30.13 in 1.0 mi NNW 3.5 mph - N/A   Overcast
9:40 AM 39.2 °F - 39.2 °F 100% 30.14 in 1.5 mi Calm Calm - N/A   Overcast
9:53 AM 39.2 °F - 39.2 °F 100% 30.14 in 2.0 mi Calm Calm - N/A   Overcast
9:55 AM 39.9 °F - 39.0 °F 97% 30.11 in 2.0 mi Calm Calm - N/A   Overcast
10:44 AM 41.0 °F - 39.2 °F 93% 30.13 in 3.0 mi Calm Calm - N/A   Overcast
10:55 AM 42.1 °F - 39.0 °F 89% 30.10 in 3.0 mi Calm Calm - N/A   Overcast
11:33 AM 42.8 °F 41.1 °F 37.4 °F 81% 30.11 in 3.0 mi ENE 3.5 mph - N/A   Overcast
11:55 AM 44.1 °F - 37.9 °F 79% 30.08 in 3.0 mi Calm Calm - N/A   Mostly Cloudy
12:17 PM 44.6 °F - 39.2 °F 81% 30.09 in 5.0 mi Calm Calm - N/A   Mostly Cloudy
12:49 PM 46.4 °F 45.2 °F 39.2 °F 76% 30.07 in 7.0 mi South 3.5 mph - N/A   Mostly Cloudy
12:55 PM 46.9 °F - 39.9 °F 77% 30.04 in 7.0 mi SSW 3.5 mph - N/A   Mostly Cloudy
1:55 PM 50.0 °F - 39.9 °F 68% 30.01 in 10.0 mi Calm Calm - N/A   Mostly Cloudy
2:55 PM 52.0 °F - 39.0 °F 61% 30.00 in 10.0 mi Calm Calm - N/A   Scattered Clouds
3:55 PM 52.0 °F - 39.0 °F 61% 30.00 in 10.0 mi SSW 3.5 mph - N/A   Scattered Clouds
4:55 PM 48.9 °F - 39.9 °F 71% 30.03 in 10.0 mi ESE 3.5 mph - N/A   Scattered Clouds
5:55 PM 46.9 °F - 37.9 °F 71% 30.05 in 10.0 mi West 3.5 mph - N/A   Partly Cloudy
6:55 PM 45.0 °F 40.6 °F 36.0 °F 71% 30.10 in 10.0 mi East 8.1 mph - N/A   Partly Cloudy
7:55 PM 45.0 °F 43.5 °F 35.1 °F 68% 30.12 in 10.0 mi Variable 3.5 mph - N/A   Clear
8:55 PM 43.0 °F - 34.0 °F 71% 30.14 in 10.0 mi Calm Calm - N/A   Clear
9:55 PM 42.1 °F 39.2 °F 33.1 °F 70% 30.16 in 10.0 mi NW 4.6 mph - N/A   Clear
10:55 PM 41.0 °F - 30.9 °F 67% 30.16 in 10.0 mi Calm Calm - N/A   Clear
11:55 PM 37.9 °F 33.5 °F 30.9 °F 76% 30.17 in 10.0 mi WNW 5.8 mph - N/A   Clear